Location: Rounton
(54.4000°N, 1.3500°W)
Time: 14:41:41
(UTC+00:00)

Altair - Pass Details

Date: 09 December 2021
Orbit: 1501 x 1683 km, 47.2° (Epoch: 19 January)

Event Time Altitude Azimuth Distance (km) Brightness Sun altitude
Rises 13:13:38 0° 200° (SSW) 4,824 12.4 11.0°
Reaches altitude 10° 13:17:29 10° 188° (S) 3,812 12.0 10.9°
Maximum altitude 13:24:46 25° 138° (SE) 2,763 9.3 10.5°
Drops below altitude 10° 13:31:51 10° 89° (E) 3,715 9.3 10.1°
Sets 13:35:32 0° 77° (ENE) 4,678 9.7 9.9°
